,,,PA_Meas_PMT16A,,PR_Meas_QMR101_102,,RH_Meas_QMH101,,SR_Meas_QMS101,,TA_Meas_QMH101,,GenWind,,GenWind,
date,time,status,PA,status,PR,status,RH,status,SR,status,TA,status,DirAvg,status,SpdAvg,
2009-03-31, 00:00:04,VALID,1000.34,VALID,0,VALID,87.7635,VALID,0,VALID,23.7207,VALID,175,VALID,1.31211,
2009-03-31, 00:01:04,VALID,1000.33,VALID,0,VALID,87.672,VALID,0,VALID,23.7597,VALID,161,VALID,0.940625,
2009-03-31, 00:02:04,VALID,1000.36,VALID,0,VALID,87.3286,VALID,0,VALID,23.8006,VALID,177,VALID,0.931641,
2009-03-31, 00:03:04,VALID,1000.33,VALID,0,VALID,87.2752,VALID,0,VALID,23.8201,VALID,175,VALID,0.708984,
2009-03-31, 00:04:04,VALID,1000.34,VALID,0,VALID,87.4736,VALID,0,VALID,23.7811,VALID,175,VALID,0.945313,
2009-03-31, 00:05:04,VALID,1000.36,VALID,0,VALID,87.466,VALID,0,VALID,23.7811,VALID,179,VALID,0.723828,
2009-03-31, 00:06:04,VALID,1000.34,VALID,0,VALID,87.4507,VALID,0,VALID,23.7811,VALID,169,VALID,0.789453,
2009-03-31, 00:07:04,VALID,1000.31,VALID,0,VALID,87.527,VALID,0,VALID,23.7402,VALID,163,VALID,0.609766,
2009-03-31, 00:08:04,VALID,1000.27,VALID,0,VALID,87.5804,VALID,0,VALID,23.7402,VALID,163,VALID,0.434375,
2009-03-31, 00:09:04,VALID,1000.28,VALID,0,VALID,87.6796,VALID,0,VALID,23.7225,VALID,163,VALID,0.291797,
2009-03-31, 00:10:04,VALID,1000.27,VALID,0,VALID,87.7864,VALID,0,VALID,23.6622,VALID,147,VALID,0.39375,
2009-03-31, 00:11:04,VALID,1000.26,VALID,0,VALID,87.9009,VALID,0,VALID,23.6427,VALID,149,VALID,0.346094,
2009-03-31, 00:12:04,VALID,1000.23,VALID,0,VALID,88.0763,VALID,0,VALID,23.6232,VALID,149,VALID,0.474219,
2009-03-31, 00:13:04,VALID,1000.22,VALID,0,VALID,88.3205,VALID,0,VALID,23.5841,VALID,148,VALID,0.449219,
2009-03-31, 00:14:04,VALID,1000.2,VALID,0,VALID,88.3586,VALID,0,VALID,23.5451,VALID,146,VALID,0.553125,
2009-03-31, 00:15:04,VALID,1000.22,VALID,0,VALID,88.1526,VALID,0.112286,VALID,23.5469,VALID,137,VALID,0.813281,
2009-03-31, 00:16:04,VALID,1000.21,VALID,0,VALID,88.2289,VALID,0,VALID,23.4866,VALID,136,VALID,0.820313,
2009-03-31, 00:17:04,VALID,1000.19,VALID,0,VALID,88.3205,VALID,0,VALID,23.4671,VALID,136,VALID,0.827734,
2009-03-31, 00:18:04,VALID,1000.15,VALID,0,VALID,88.4197,VALID,0,VALID,23.4671,VALID,135,VALID,0.807422,
2009-03-31, 00:19:04,VALID,1000.13,VALID,0,VALID,88.5646,VALID,0,VALID,23.4671,VALID,135,VALID,0.687891,
2009-03-31, 00:20:04,VALID,1000.11,VALID,0,VALID,88.7783,VALID,0,VALID,23.4475,VALID,135,VALID,0.730469,
2009-03-31, 00:21:04,VALID,1000.06,VALID,0,VALID,88.8774,VALID,0,VALID,23.4085,VALID,135,VALID,0.621484,
2009-03-31, 00:22:04,VALID,1000.07,VALID,0,VALID,89.0529,VALID,0,VALID,23.389,VALID,137,VALID,0.478516,
2009-03-31, 00:23:04,VALID,1000.06,VALID,0,VALID,89.1445,VALID,0,VALID,23.35,VALID,137,VALID,0.180078,
2009-03-31, 00:24:04,VALID,1000.06,VALID,0,VALID,89.3123,VALID,0,VALID,23.3518,VALID,137,VALID,0.162891,
2009-03-31, 00:25:04,VALID,1000.04,VALID,0,VALID,89.5489,VALID,0,VALID,23.311,VALID,184,VALID,0.442969,
2009-03-31, 00:26:04,VALID,1000.04,VALID,0,VALID,89.6251,VALID,0,VALID,23.311,VALID,210,VALID,0.498437,
2009-03-31, 00:27:04,VALID,1000.03,VALID,0,VALID,89.6862,VALID,0,VALID,23.2719,VALID,226,VALID,0.559766,
2009-03-31, 00:28:04,VALID,1000.05,VALID,0,VALID,89.9914,VALID,0.112286,VALID,23.2134,VALID,226,VALID,0.478516,
2009-03-31, 00:29:04,VALID,1000.04,VALID,0,VALID,90.3194,VALID,0,VALID,23.1549,VALID,226,VALID,0.303906,
2009-03-31, 00:30:04,VALID,1000.01,VALID,0,VALID,90.5483,VALID,0,VALID,23.1159,VALID,226,VALID,0.265234,
2009-03-31, 00:31:04,VALID,1000.03,VALID,0,VALID,90.762,VALID,0,VALID,23.0573,VALID,226,VALID,0.00195313,
2009-03-31, 00:32:04,VALID,1000.03,VALID,0,VALID,90.7925,VALID,0,VALID,23.0591,VALID,215,VALID,0.321094,
2009-03-31, 00:33:04,VALID,1000.05,VALID,0,VALID,90.8764,VALID,0,VALID,23.0396,VALID,142,VALID,0.721094,
2009-03-31, 00:34:04,VALID,999.988,VALID,0,VALID,90.266,VALID,0,VALID,23.0396,VALID,145,VALID,1.11445,
2009-03-31, 00:35:04,VALID,999.981,VALID,0,VALID,89.8006,VALID,0,VALID,23.0964,VALID,146,VALID,1.33203,
2009-03-31, 00:36:04,VALID,999.967,VALID,0,VALID,89.8311,VALID,0,VALID,23.1939,VALID,164,VALID,1.80938,
2009-03-31, 00:37:04,VALID,1000.02,VALID,0,VALID,89.5336,VALID,0,VALID,23.3127,VALID,171,VALID,1.96602,
2009-03-31, 00:38:04,VALID,999.989,VALID,0,VALID,88.9614,VALID,0,VALID,23.3908,VALID,178,VALID,1.64375,
2009-03-31, 00:39:04,VALID,1000.02,VALID,0,VALID,88.7325,VALID,0,VALID,23.3908,VALID,173,VALID,1.4207,
2009-03-31, 00:40:04,VALID,1000,VALID,0,VALID,88.6867,VALID,0,VALID,23.3908,VALID,177,VALID,1.38789,
2009-03-31, 00:41:04,VALID,999.995,VALID,0,VALID,88.9309,VALID,0,VALID,23.3518,VALID,173,VALID,1.30313,
2009-03-31, 00:42:04,VALID,1000.02,VALID,0,VALID,89.1597,VALID,0,VALID,23.3323,VALID,170,VALID,1.42461,
2009-03-31, 00:43:04,VALID,999.987,VALID,0,VALID,89.2971,VALID,0,VALID,23.2915,VALID,177,VALID,1.08008,
2009-03-31, 00:44:04,VALID,999.931,VALID,0,VALID,89.2971,VALID,0,VALID,23.2719,VALID,170,VALID,1.31289,
2009-03-31, 00:45:04,VALID,999.915,VALID,0,VALID,89.3047,VALID,0,VALID,23.2737,VALID,167,VALID,1.10859,
2009-03-31, 00:46:04,VALID,999.91,VALID,0,VALID,89.3276,VALID,0,VALID,23.2737,VALID,167,VALID,1.08672,
2009-03-31, 00:47:04,VALID,999.851,VALID,0,VALID,89.4497,VALID,0,VALID,23.2542,VALID,156,VALID,0.646094,
2009-03-31, 00:48:04,VALID,999.844,VALID,0,VALID,89.5641,VALID,0,VALID,23.2329,VALID,154,VALID,0.751172,
2009-03-31, 00:49:04,VALID,999.851,VALID,0,VALID,89.5565,VALID,0,VALID,23.2152,VALID,152,VALID,0.406641,
2009-03-31, 00:50:04,VALID,999.843,VALID,0,VALID,89.7396,VALID,0,VALID,23.1744,VALID,152,VALID,0.193359,
2009-03-31, 00:51:04,VALID,999.842,VALID,0,VALID,89.8006,VALID,0,VALID,23.1566,VALID,144,VALID,0.416016,
2009-03-31, 00:52:04,VALID,999.817,VALID,0,VALID,89.4878,VALID,0,VALID,23.1176,VALID,111,VALID,0.973437,
2009-03-31, 00:53:04,VALID,999.806,VALID,0,VALID,89.5183,VALID,0,VALID,23.0786,VALID,110,VALID,0.430078,
2009-03-31, 00:54:04,VALID,999.792,VALID,0,VALID,89.4878,VALID,0,VALID,23.0591,VALID,112,VALID,0.385938,
2009-03-31, 00:55:04,VALID,999.797,VALID,0,VALID,89.3734,VALID,0,VALID,23.0396,VALID,111,VALID,0.0890625,
2009-03-31, 00:56:04,VALID,999.799,VALID,0,VALID,89.3734,VALID,0,VALID,22.9811,VALID,111,VALID,0.241016,
2009-03-31, 00:57:04,VALID,999.796,VALID,0,VALID,89.4573,VALID,0,VALID,22.942,VALID,111,VALID,0.147266,
2009-03-31, 00:58:04,VALID,999.816,VALID,0,VALID,89.6099,VALID,0,VALID,22.8818,VALID,111,VALID,0.0382813,
2009-03-31, 00:59:04,VALID,999.805,VALID,0,VALID,89.854,VALID,0,VALID,22.8835,VALID,111,VALID,0,
2009-03-31, 01:00:04,VALID,999.804,VALID,0,VALID,90.0829,VALID,0,VALID,22.8445,VALID,111,VALID,0.123438,
2009-03-31, 01:01:04,VALID,999.813,VALID,0,VALID,90.144,VALID,0,VALID,22.8055,VALID,111,VALID,0,
2009-03-31, 01:02:04,VALID,999.792,VALID,0,VALID,90.2355,VALID,0,VALID,22.7469,VALID,111,VALID,0,
2009-03-31, 01:03:04,VALID,999.756,VALID,0,VALID,90.4339,VALID,0,VALID,22.7274,VALID,111,VALID,0,
2009-03-31, 01:04:04,VALID,999.741,VALID,0,VALID,90.5788,VALID,0,VALID,22.7079,VALID,111,VALID,0.00195313,
2009-03-31, 01:05:04,VALID,999.735,VALID,0,VALID,90.7467,VALID,0,VALID,22.6689,VALID,111,VALID,0.0308594,
2009-03-31, 01:06:04,VALID,999.698,VALID,0,VALID,90.9374,VALID,0,VALID,22.6689,VALID,111,VALID,0.212109,
2009-03-31, 01:07:04,VALID,999.697,VALID,0,VALID,90.8993,VALID,0,VALID,22.6689,VALID,111,VALID,0.199219,
2009-03-31, 01:08:04,VALID,999.669,VALID,0,VALID,90.823,VALID,0,VALID,22.6884,VALID,111,VALID,0.246094,
2009-03-31, 01:09:04,VALID,999.656,VALID,0,VALID,90.6551,VALID,0,VALID,22.6884,VALID,111,VALID,0.121094,
2009-03-31, 01:10:04,VALID,999.669,VALID,0,VALID,90.7238,VALID,0,VALID,22.6884,VALID,111,VALID,0.357812,
2009-03-31, 01:11:04,VALID,999.647,VALID,0,VALID,90.7314,VALID,0,VALID,22.7079,VALID,112,VALID,0.196484,
2009-03-31, 01:12:04,VALID,999.651,VALID,0,VALID,90.5712,VALID,0,VALID,22.7274,VALID,112,VALID,0.227344,
2009-03-31, 01:13:04,VALID,999.649,VALID,0,VALID,90.472,VALID,0,VALID,22.7079,VALID,112,VALID,0.274609,
2009-03-31, 01:14:04,VALID,999.653,VALID,0,VALID,90.2813,VALID,0,VALID,22.7079,VALID,26,VALID,0.812109,
2009-03-31, 01:15:04,VALID,999.652,VALID,0,VALID,90.0753,VALID,0,VALID,22.7062,VALID,21,VALID,0.764844,
2009-03-31, 01:16:04,VALID,999.633,VALID,0,VALID,90.1668,VALID,0,VALID,22.7274,VALID,21,VALID,0.997266,
2009-03-31, 01:17:04,VALID,999.65,VALID,0,VALID,90.2508,VALID,0,VALID,22.7079,VALID,21,VALID,0.919141,
2009-03-31, 01:18:04,VALID,999.637,VALID,0,VALID,90.2355,VALID,0,VALID,22.6884,VALID,27,VALID,0.767187,
2009-03-31, 01:19:04,VALID,999.634,VALID,0,VALID,90.2966,VALID,0,VALID,22.6494,VALID,27,VALID,0.987891,
2009-03-31, 01:20:04,VALID,999.642,VALID,0,VALID,90.5941,VALID,0,VALID,22.5909,VALID,27,VALID,1.07539,
2009-03-31, 01:21:04,VALID,999.658,VALID,0,VALID,90.8611,VALID,0,VALID,22.5501,VALID,29,VALID,0.899219,
2009-03-31, 01:22:04,VALID,999.683,VALID,0,VALID,90.8917,VALID,0,VALID,22.5111,VALID,34,VALID,0.714844,
2009-03-31, 01:23:04,VALID,999.686,VALID,0,VALID,91.1206,VALID,0,VALID,22.5128,VALID,30,VALID,0.791797,
2009-03-31, 01:24:04,VALID,999.715,VALID,0,VALID,91.4334,VALID,0,VALID,22.4738,VALID,13,VALID,1.06484,
2009-03-31, 01:25:04,VALID,999.744,VALID,0,VALID,91.4563,VALID,0,VALID,22.4933,VALID,12,VALID,1.01992,
2009-03-31, 01:26:04,VALID,999.709,VALID,0,VALID,91.6165,VALID,0,VALID,22.4916,VALID,354,VALID,0.674609,
2009-03-31, 01:27:04,VALID,999.699,VALID,0,VALID,91.6623,VALID,0,VALID,22.4933,VALID,354,VALID,0.499609,
2009-03-31, 01:28:04,VALID,999.693,VALID,0,VALID,91.9369,VALID,0,VALID,22.4933,VALID,354,VALID,0.390625,
2009-03-31, 01:29:04,VALID,999.649,VALID,0,VALID,92.0666,VALID,0,VALID,22.4933,VALID,354,VALID,0.307031,
2009-03-31, 01:30:04,VALID,999.674,VALID,0,VALID,92.0209,VALID,0,VALID,22.5128,VALID,354,VALID,0.301172,
2009-03-31, 01:31:04,VALID,999.642,VALID,0,VALID,92.1277,VALID,0,VALID,22.5128,VALID,354,VALID,0.384766,
2009-03-31, 01:32:04,VALID,999.604,VALID,0,VALID,92.1048,VALID,0,VALID,22.5128,VALID,45,VALID,0.694531,
2009-03-31, 01:33:04,VALID,999.599,VALID,0,VALID,91.9674,VALID,0,VALID,22.5128,VALID,46,VALID,1.11992,
2009-03-31, 01:34:04,VALID,999.58,VALID,0,VALID,92.1734,VALID,0,VALID,22.5519,VALID,60,VALID,1.23164,
2009-03-31, 01:35:04,VALID,999.556,VALID,0,VALID,92.0895,VALID,0,VALID,22.6087,VALID,60,VALID,1.20703,
2009-03-31, 01:36:04,VALID,999.535,VALID,0,VALID,91.8225,VALID,0,VALID,22.6884,VALID,60,VALID,1.2707,
2009-03-31, 01:37:04,VALID,999.512,VALID,0,VALID,91.6699,VALID,0,VALID,22.7079,VALID,60,VALID,1.15313,
2009-03-31, 01:38:04,VALID,999.469,VALID,0,VALID,91.7691,VALID,0,VALID,22.7079,VALID,64,VALID,1.18828,
2009-03-31, 01:39:04,VALID,999.427,VALID,0,VALID,91.9827,VALID,0,VALID,22.6689,VALID,65,VALID,1.02383,
2009-03-31, 01:40:04,VALID,999.402,VALID,0,VALID,92.059,VALID,0,VALID,22.6282,VALID,65,VALID,0.843359,
2009-03-31, 01:41:04,VALID,999.391,VALID,0,VALID,92.12,VALID,0,VALID,22.6087,VALID,65,VALID,0.880469,
2009-03-31, 01:42:04,VALID,999.384,VALID,0,VALID,92.1734,VALID,0,VALID,22.5892,VALID,69,VALID,0.903516,
2009-03-31, 01:43:04,VALID,999.386,VALID,0,VALID,92.3184,VALID,0,VALID,22.5892,VALID,71,VALID,0.937109,
2009-03-31, 01:44:04,VALID,999.375,VALID,0,VALID,92.4786,VALID,0,VALID,22.5909,VALID,83,VALID,0.65,
2009-03-31, 01:45:04,VALID,999.371,VALID,0,VALID,92.5626,VALID,0,VALID,22.5714,VALID,87,VALID,0.646875,
2009-03-31, 01:46:04,VALID,999.379,VALID,0,VALID,92.7457,VALID,0,VALID,22.5323,VALID,107,VALID,0.650391,
2009-03-31, 01:47:04,VALID,999.399,VALID,0,VALID,92.9135,VALID,0,VALID,22.5519,VALID,118,VALID,0.672656,
2009-03-31, 01:48:04,VALID,999.356,VALID,0,VALID,92.9822,VALID,0,VALID,22.5519,VALID,124,VALID,0.754297,
2009-03-31, 01:49:04,VALID,999.351,VALID,0,VALID,93.1043,VALID,0,VALID,22.5519,VALID,128,VALID,0.555469,
2009-03-31, 01:50:04,VALID,999.37,VALID,0,VALID,93.2034,VALID,0,VALID,22.5714,VALID,130,VALID,0.651953,
2009-03-31, 01:51:04,VALID,999.38,VALID,0,VALID,93.1271,VALID,0,VALID,22.5519,VALID,131,VALID,0.769141,
2009-03-31, 01:52:04,VALID,999.411,VALID,0,VALID,93.0508,VALID,0,VALID,22.5323,VALID,135,VALID,0.675,
2009-03-31, 01:53:04,VALID,999.372,VALID,0,VALID,92.7533,VALID,0,VALID,22.5323,VALID,137,VALID,0.768359,
2009-03-31, 01:54:04,VALID,999.387,VALID,0,VALID,92.4328,VALID,0,VALID,22.5128,VALID,137,VALID,1.175,
2009-03-31, 01:55:04,VALID,999.386,VALID,0,VALID,92.0209,VALID,0,VALID,22.5128,VALID,135,VALID,1.08867,
2009-03-31, 01:56:04,VALID,999.359,VALID,0,VALID,91.6546,VALID,0,VALID,22.5323,VALID,133,VALID,1.12031,
2009-03-31, 01:57:04,VALID,999.372,VALID,0,VALID,91.3723,VALID,0,VALID,22.5714,VALID,131,VALID,0.991797,
2009-03-31, 01:58:04,VALID,999.333,VALID,0,VALID,91.1587,VALID,0,VALID,22.5714,VALID,135,VALID,0.938281,
2009-03-31, 01:59:04,VALID,999.323,VALID,0,VALID,91.1358,VALID,0,VALID,22.5714,VALID,139,VALID,0.840625,
2009-03-31, 02:00:04,VALID,999.336,VALID,0,VALID,91.029,VALID,0,VALID,22.5909,VALID,147,VALID,1.02656,
2009-03-31, 02:01:04,VALID,999.294,VALID,0,VALID,90.8764,VALID,0,VALID,22.6104,VALID,146,VALID,0.922266,
2009-03-31, 02:02:04,VALID,999.31,VALID,0,VALID,90.8077,VALID,0,VALID,22.6316,VALID,145,VALID,0.826953,
2009-03-31, 02:03:04,VALID,999.293,VALID,0,VALID,90.5941,VALID,0,VALID,22.6299,VALID,152,VALID,1.03164,
2009-03-31, 02:04:04,VALID,999.295,VALID,0,VALID,90.2431,VALID,0,VALID,22.6299,VALID,153,VALID,1.175,
2009-03-31, 02:05:04,VALID,999.325,VALID,0,VALID,90.1974,VALID,0,VALID,22.6494,VALID,150,VALID,0.977734,
2009-03-31, 02:06:04,VALID,999.296,VALID,0,VALID,89.7625,VALID,0,VALID,22.6494,VALID,140,VALID,1.03086,
2009-03-31, 02:07:04,VALID,999.323,VALID,0,VALID,89.2666,VALID,0,VALID,22.6494,VALID,138,VALID,1.06406,
2009-03-31, 02:08:04,VALID,999.286,VALID,0,VALID,89.175,VALID,0,VALID,22.6689,VALID,125,VALID,0.585156,
2009-03-31, 02:09:04,VALID,999.269,VALID,0,VALID,89.0453,VALID,0,VALID,22.6282,VALID,125,VALID,0.389062,
2009-03-31, 02:10:04,VALID,999.285,VALID,0,VALID,88.9003,VALID,0,VALID,22.6104,VALID,118,VALID,0.548047,
2009-03-31, 02:11:04,VALID,999.242,VALID,0,VALID,88.8927,VALID,0,VALID,22.5909,VALID,99,VALID,0.597266,
2009-03-31, 02:12:04,VALID,999.197,VALID,0,VALID,88.8698,VALID,0,VALID,22.5714,VALID,87,VALID,0.750781,
2009-03-31, 02:13:04,VALID,999.212,VALID,0,VALID,89.0834,VALID,0,VALID,22.5323,VALID,73,VALID,0.830469,
2009-03-31, 02:14:04,VALID,999.168,VALID,0,VALID,89.6709,VALID,0,VALID,22.5128,VALID,42,VALID,0.950781,
2009-03-31, 02:15:04,VALID,999.165,VALID,0,VALID,89.6557,VALID,0,VALID,22.5323,VALID,37,VALID,0.819531,
2009-03-31, 02:16:04,VALID,999.19,VALID,0,VALID,89.8998,VALID,0,VALID,22.4933,VALID,37,VALID,0.780469,
2009-03-31, 02:17:04,VALID,999.157,VALID,0,VALID,90.2203,VALID,0,VALID,22.4543,VALID,37,VALID,0.614844,
2009-03-31, 02:18:04,VALID,999.127,VALID,0,VALID,90.144,VALID,0,VALID,22.4153,VALID,38,VALID,0.432422,
2009-03-31, 02:19:04,VALID,999.141,VALID,0,VALID,90.2966,VALID,0,VALID,22.3958,VALID,73,VALID,0.632422,
2009-03-31, 02:20:04,VALID,999.153,VALID,0,VALID,90.5788,VALID,0,VALID,22.3568,VALID,87,VALID,0.455469,
2009-03-31, 02:21:04,VALID,999.135,VALID,0,VALID,90.8383,VALID,0,VALID,22.3373,VALID,96,VALID,0.483203,
2009-03-31, 02:22:04,VALID,999.12,VALID,0,VALID,90.9298,VALID,0,VALID,22.3178,VALID,114,VALID,0.467578,
2009-03-31, 02:23:04,VALID,999.149,VALID,0,VALID,90.968,VALID,0,VALID,22.2788,VALID,114,VALID,0.600391,
2009-03-31, 02:24:04,VALID,999.144,VALID,0,VALID,91.0748,VALID,0,VALID,22.2592,VALID,118,VALID,0.80625,
2009-03-31, 02:25:04,VALID,999.133,VALID,0,VALID,91.1206,VALID,0,VALID,22.2202,VALID,125,VALID,0.492578,
2009-03-31, 02:26:04,VALID,999.105,VALID,0,VALID,91.1663,VALID,0,VALID,22.2202,VALID,124,VALID,0.378125,
2009-03-31, 02:27:04,VALID,999.107,VALID,0,VALID,91.1816,VALID,0,VALID,22.2007,VALID,124,VALID,0,
2009-03-31, 02:28:04,VALID,999.124,VALID,0,VALID,91.2197,VALID,0,VALID,22.1812,VALID,124,VALID,0.0125,
2009-03-31, 02:29:04,VALID,999.121,VALID,0,VALID,91.235,VALID,0,VALID,22.1617,VALID,124,VALID,0.132422,
2009-03-31, 02:30:04,VALID,999.146,VALID,0,VALID,91.2045,VALID,0,VALID,22.1422,VALID,124,VALID,0.150391,
2009-03-31, 02:31:04,VALID,999.129,VALID,0,VALID,91.2045,VALID,0,VALID,22.1227,VALID,124,VALID,0,
2009-03-31, 02:32:04,VALID,999.139,VALID,0,VALID,91.174,VALID,0,VALID,22.1032,VALID,124,VALID,0,
2009-03-31, 02:33:04,VALID,999.131,VALID,0,VALID,91.2045,VALID,0,VALID,22.0837,VALID,124,VALID,0,
2009-03-31, 02:34:04,VALID,999.124,VALID,0,VALID,91.174,VALID,0,VALID,22.0642,VALID,124,VALID,0.00117188,
2009-03-31, 02:35:04,VALID,999.133,VALID,0,VALID,91.1434,VALID,0,VALID,22.0642,VALID,124,VALID,0,
2009-03-31, 02:36:04,VALID,999.093,VALID,0,VALID,91.1587,VALID,0,VALID,22.0642,VALID,124,VALID,0.161328,
2009-03-31, 02:37:04,VALID,999.106,VALID,0,VALID,91.1206,VALID,0,VALID,22.0447,VALID,124,VALID,0,
2009-03-31, 02:38:04,VALID,999.03,VALID,0,VALID,91.1892,VALID,0,VALID,22.0642,VALID,124,VALID,0,
2009-03-31, 02:39:04,VALID,999.061,VALID,0,VALID,91.3494,VALID,0,VALID,22.0642,VALID,120,VALID,0.703516,
2009-03-31, 02:40:04,VALID,999.038,VALID,0,VALID,91.2503,VALID,0,VALID,22.0837,VALID,119,VALID,0.424219,
2009-03-31, 02:41:04,VALID,999.029,VALID,0,VALID,91.1511,VALID,0,VALID,22.1032,VALID,135,VALID,0.607422,
2009-03-31, 02:42:04,VALID,999.001,VALID,0,VALID,90.9603,VALID,0,VALID,22.1227,VALID,115,VALID,0.766797,
2009-03-31, 02:43:04,VALID,999.024,VALID,0,VALID,90.8154,VALID,0,VALID,22.1617,VALID,122,VALID,0.798437,
2009-03-31, 02:44:04,VALID,999.027,VALID,0,VALID,90.6475,VALID,0,VALID,22.1812,VALID,122,VALID,0.545703,
2009-03-31, 02:45:04,VALID,999.034,VALID,0,VALID,90.5865,VALID,0,VALID,22.1812,VALID,124,VALID,0.596484,
2009-03-31, 02:46:04,VALID,999.066,VALID,0,VALID,90.5483,VALID,0,VALID,22.2007,VALID,124,VALID,0.501172,
2009-03-31, 02:47:04,VALID,999.064,VALID,0,VALID,90.5407,VALID,0,VALID,22.2202,VALID,124,VALID,0.399609,
2009-03-31, 02:48:04,VALID,999.076,VALID,0,VALID,90.556,VALID,0,VALID,22.2007,VALID,124,VALID,0.292578,
2009-03-31, 02:49:04,VALID,999.098,VALID,0,VALID,90.5636,VALID,0,VALID,22.2202,VALID,126,VALID,0.330469,
2009-03-31, 02:50:04,VALID,999.132,VALID,0,VALID,90.4873,VALID,0,VALID,22.199,VALID,175,VALID,0.534375,
2009-03-31, 02:51:04,VALID,999.121,VALID,0,VALID,90.1974,VALID,0,VALID,22.2202,VALID,150,VALID,1.0082,
2009-03-31, 02:52:04,VALID,999.166,VALID,0,VALID,89.8388,VALID,0,VALID,22.2592,VALID,144,VALID,0.766016,
2009-03-31, 02:53:04,VALID,999.167,VALID,0,VALID,89.8998,VALID,0,VALID,22.2983,VALID,149,VALID,0.732422,
2009-03-31, 02:54:04,VALID,999.206,VALID,0,VALID,89.8922,VALID,0,VALID,22.2983,VALID,143,VALID,0.583984,
2009-03-31, 02:55:04,VALID,999.214,VALID,0,VALID,89.7167,VALID,0,VALID,22.3373,VALID,143,VALID,0.393359,
2009-03-31, 02:56:04,VALID,999.235,VALID,0,VALID,89.526,VALID,0,VALID,22.3373,VALID,143,VALID,0.209766,
2009-03-31, 02:57:04,VALID,999.265,VALID,0,VALID,89.3428,VALID,0,VALID,22.3373,VALID,146,VALID,0.154297,
2009-03-31, 02:58:04,VALID,999.243,VALID,0,VALID,89.2513,VALID,0,VALID,22.3373,VALID,146,VALID,0.383203,
2009-03-31, 02:59:04,VALID,999.299,VALID,0,VALID,89.1674,VALID,0,VALID,22.3373,VALID,146,VALID,0.136719,
2009-03-31, 03:00:04,VALID,999.26,VALID,0,VALID,89.1063,VALID,0,VALID,22.3373,VALID,167,VALID,0.390234,
2009-03-31, 03:01:04,VALID,999.258,VALID,0,VALID,89.0071,VALID,0,VALID,22.3568,VALID,167,VALID,0.0589844,
2009-03-31, 03:02:04,VALID,999.272,VALID,0,VALID,88.9461,VALID,0,VALID,22.3568,VALID,167,VALID,0.139453,
2009-03-31, 03:03:04,VALID,999.244,VALID,0,VALID,89.0453,VALID,0,VALID,22.3763,VALID,167,VALID,0.391797,
2009-03-31, 03:04:04,VALID,999.258,VALID,0,VALID,88.9232,VALID,0,VALID,22.3958,VALID,246,VALID,0.449609,
2009-03-31, 03:05:04,VALID,999.268,VALID,0,VALID,88.8393,VALID,0,VALID,22.3958,VALID,246,VALID,0.507422,
2009-03-31, 03:06:04,VALID,999.278,VALID,0,VALID,88.7783,VALID,0,VALID,22.3958,VALID,258,VALID,0.528125,
2009-03-31, 03:07:04,VALID,999.259,VALID,0,VALID,88.7096,VALID,0,VALID,22.3958,VALID,258,VALID,0.264844,
2009-03-31, 03:08:04,VALID,999.313,VALID,0,VALID,88.4273,VALID,0,VALID,22.3746,VALID,258,VALID,0.0359375,
2009-03-31, 03:09:04,VALID,999.314,VALID,0,VALID,88.0382,VALID,0,VALID,22.3763,VALID,255,VALID,0.0648438,
2009-03-31, 03:10:04,VALID,999.354,VALID,0,VALID,88.2518,VALID,0,VALID,22.3958,VALID,134,VALID,0.701563,
2009-03-31, 03:11:04,VALID,999.337,VALID,0,VALID,87.6186,VALID,0,VALID,22.4153,VALID,135,VALID,0.907422,
2009-03-31, 03:12:04,VALID,999.35,VALID,0,VALID,87.2218,VALID,0,VALID,22.4738,VALID,139,VALID,0.915234,
2009-03-31, 03:13:04,VALID,999.348,VALID,0,VALID,86.8785,VALID,0,VALID,22.5323,VALID,141,VALID,1.18906,
2009-03-31, 03:14:04,VALID,999.35,VALID,0,VALID,86.5046,VALID,0,VALID,22.5909,VALID,146,VALID,1.19531,
2009-03-31, 03:15:04,VALID,999.329,VALID,0,VALID,86.1842,VALID,0,VALID,22.6299,VALID,151,VALID,0.987891,
2009-03-31, 03:16:04,VALID,999.335,VALID,0,VALID,86.0392,VALID,0,VALID,22.6689,VALID,148,VALID,1.06289,
2009-03-31, 03:17:04,VALID,999.31,VALID,0,VALID,85.734,VALID,0,VALID,22.6884,VALID,149,VALID,1.25234,
2009-03-31, 03:18:04,VALID,999.295,VALID,0,VALID,85.7798,VALID,0,VALID,22.6884,VALID,147,VALID,1.14102,
2009-03-31, 03:19:04,VALID,999.308,VALID,0,VALID,85.6043,VALID,0,VALID,22.6884,VALID,147,VALID,1.08789,
2009-03-31, 03:20:04,VALID,999.287,VALID,0,VALID,85.673,VALID,0,VALID,22.6884,VALID,141,VALID,1.11563,
2009-03-31, 03:21:04,VALID,999.295,VALID,0,VALID,85.8409,VALID,0,VALID,22.6689,VALID,145,VALID,0.959766,
2009-03-31, 03:22:04,VALID,999.294,VALID,0,VALID,86.1079,VALID,0,VALID,22.6299,VALID,139,VALID,0.8375,
2009-03-31, 03:23:04,VALID,999.304,VALID,0,VALID,86.1537,VALID,0,VALID,22.5696,VALID,142,VALID,0.858594,
2009-03-31, 03:24:04,VALID,999.271,VALID,0,VALID,86.2071,VALID,0,VALID,22.5323,VALID,137,VALID,1.03477,
2009-03-31, 03:25:04,VALID,999.291,VALID,0,VALID,86.3749,VALID,0,VALID,22.4933,VALID,115,VALID,0.563672,
2009-03-31, 03:26:04,VALID,999.305,VALID,0,VALID,86.703,VALID,0,VALID,22.4543,VALID,94,VALID,0.526953,
2009-03-31, 03:27:04,VALID,999.295,VALID,0,VALID,86.97,VALID,0,VALID,22.3958,VALID,61,VALID,0.686328,
2009-03-31, 03:28:04,VALID,999.28,VALID,0,VALID,87.3439,VALID,0,VALID,22.3568,VALID,73,VALID,1.13594,
2009-03-31, 03:29:04,VALID,999.314,VALID,0,VALID,87.6796,VALID,0,VALID,22.3178,VALID,62,VALID,1.025,
2009-03-31, 03:30:04,VALID,999.333,VALID,0,VALID,87.8246,VALID,0,VALID,22.3,VALID,26,VALID,0.997266,
2009-03-31, 03:31:04,VALID,999.356,VALID,0,VALID,88.2976,VALID,0,VALID,22.2202,VALID,12,VALID,0.807031,
2009-03-31, 03:32:04,VALID,999.368,VALID,0,VALID,88.6104,VALID,0,VALID,22.1812,VALID,9,VALID,0.827344,
2009-03-31, 03:33:04,VALID,999.363,VALID,0,VALID,88.8164,VALID,0,VALID,22.1617,VALID,354,VALID,0.833984,
2009-03-31, 03:34:04,VALID,999.4,VALID,0,VALID,88.763,VALID,0,VALID,22.1617,VALID,340,VALID,0.537891,
2009-03-31, 03:35:04,VALID,999.429,VALID,0,VALID,88.6867,VALID,0,VALID,22.1617,VALID,5,VALID,0.826953,
2009-03-31, 03:36:04,VALID,999.435,VALID,0,VALID,88.763,VALID,0,VALID,22.1617,VALID,11,VALID,0.755078,
2009-03-31, 03:37:04,VALID,999.447,VALID,0,VALID,88.5723,VALID,0,VALID,22.2007,VALID,21,VALID,0.985156,
2009-03-31, 03:38:04,VALID,999.472,VALID,0,VALID,88.5799,VALID,0,VALID,22.2186,VALID,37,VALID,0.883594,
2009-03-31, 03:39:04,VALID,999.475,VALID,0,VALID,88.5951,VALID,0,VALID,22.2788,VALID,32,VALID,0.875391,
2009-03-31, 03:40:04,VALID,999.476,VALID,0,VALID,88.4502,VALID,0,VALID,22.2983,VALID,31,VALID,0.949609,
2009-03-31, 03:41:04,VALID,999.48,VALID,0,VALID,88.3205,VALID,0,VALID,22.2966,VALID,31,VALID,0.596484,
2009-03-31, 03:42:04,VALID,999.496,VALID,0,VALID,88.3357,VALID,0,VALID,22.3178,VALID,31,VALID,0.581641,
2009-03-31, 03:43:04,VALID,999.491,VALID,0,VALID,88.5417,VALID,0,VALID,22.2592,VALID,33,VALID,0.642578,
2009-03-31, 03:44:04,VALID,999.489,VALID,0,VALID,88.8469,VALID,0,VALID,22.2592,VALID,43,VALID,0.869141,
2009-03-31, 03:45:04,VALID,999.501,VALID,0,VALID,89.1903,VALID,0,VALID,22.2202,VALID,39,VALID,1.0457,